Kremmling, CO

7:43 PM MDT on March 22, 2019 (GMT -0600)
Kremmling

Weather History for K20V - March, 2019

Change the Weather History Date:

Friday, March 22, 2019

  Actual Average Record
Temperature  
Mean Temperature 32 °F -  
Max Temperature 41 °F - 72 °F (2017)
Min Temperature 24 °F - 14 °F (2013)
Degree Days  
Heating Degree Days 32    
Month to date heating degree days  
Cooling Degree Days 0    
Month to date cooling degree days  
Moisture  
Dew Point 28 °F    
Average Humidity 85    
Maximum Humidity 100    
Minimum Humidity 61    
Precipitation  
Precipitation 0.00 in - 0.17 in (2014)
Snow  
Snow - - - ()
Snow Depth -    
Sea Level Pressure  
Sea Level Pressure 30.02 in    
Wind  
Wind Speed 2 mph ()    
Max Wind Speed 10 mph    
Max Gust Speed -    
Visibility 9.4 miles    
Events Rain , Snow    
T = Trace of Precipitation, MM = Missing Value Source: Averaged Metar Reports

Daily Weather History Graph

Daily Weather History Graph

Search for Another Location

Airport or City:

Astronomy

Mar. 22, 2019 Rise Set
Actual Time 7:05 AM MDT 7:19 PM MDT
Civil Twilight 6:38 AM MDT 7:46 PM MDT
Nautical Twilight 6:07 AM MDT 8:18 PM MDT
Astronomical Twilight 5:34 AM MDT 8:50 PM MDT
Moon 9:30 PM MDT (3/22) 8:22 AM MDT (3/22)
Length of Visible Light 13h 07m
Length of Day
12h 13m
Waning Gibbous, 96% of the Moon is Illuminated
Today
Waning Gibbous
Mar 27
Last Quarter
Apr 5
New
Apr 12
First Quarter
Apr 19
Full

Hourly Weather History & Observations

Time (MDT) Temp. Windchill Dew Point Humidity Pressure Visibility Wind Dir Wind Speed Gust Speed Precip Events Conditions
12:12 AM 32.0 °F 27.5 °F 28.4 °F 87% 30.09 in 10.0 mi West 4.6 mph - N/A   Scattered Clouds
12:30 AM 32.0 °F - 28.4 °F 87% 30.08 in 10.0 mi Calm Calm - N/A   Clear
12:53 AM 32.0 °F 28.7 °F 28.4 °F 87% 30.08 in 10.0 mi West 3.5 mph - N/A   Clear
1:12 AM 32.0 °F 26.4 °F 28.4 °F 87% 30.08 in 10.0 mi SW 5.8 mph - N/A   Clear
1:30 AM 33.8 °F - 28.4 °F 81% 30.08 in 10.0 mi Calm Calm - N/A   Clear
1:54 AM 30.2 °F 24.3 °F 26.6 °F 86% 30.07 in 10.0 mi East 5.8 mph - N/A   Clear
2:13 AM 30.2 °F 26.7 °F 26.6 °F 86% 30.08 in 10.0 mi ENE 3.5 mph - N/A   Clear
2:31 AM 30.2 °F 25.4 °F 26.6 °F 86% 30.07 in 10.0 mi East 4.6 mph - N/A   Clear
2:49 AM 30.2 °F 24.3 °F 28.4 °F 93% 30.07 in 10.0 mi ESE 5.8 mph - N/A   Clear
3:12 AM 26.6 °F - 26.6 °F 100% 30.06 in 10.0 mi Calm Calm - N/A   Clear
3:30 AM 28.4 °F - 26.6 °F 93% 30.06 in 10.0 mi Calm Calm - N/A   Clear
3:54 AM 26.6 °F - 26.6 °F 100% 30.06 in 10.0 mi Calm Calm - N/A   Clear
4:12 AM 26.6 °F - 26.6 °F 100% 30.05 in 10.0 mi Calm Calm - N/A   Clear
4:30 AM 24.8 °F - 23.0 °F 93% 30.04 in 10.0 mi Calm Calm - N/A   Mostly Cloudy
4:54 AM 26.6 °F - 26.6 °F 100% 30.04 in 10.0 mi Calm Calm - N/A   Overcast
5:12 AM 24.8 °F - 23.0 °F 93% 30.04 in 10.0 mi Calm Calm - N/A   Overcast
5:30 AM 26.6 °F - 24.8 °F 93% 30.04 in 10.0 mi Calm Calm - N/A   Overcast
5:54 AM 26.6 °F - 26.6 °F 100% 30.04 in 10.0 mi Calm Calm - N/A   Overcast
6:09 AM 26.6 °F - 23.0 °F 86% 30.04 in 10.0 mi Calm Calm - N/A   Overcast
6:33 AM 24.8 °F - 23.0 °F 93% 30.04 in 10.0 mi Calm Calm - N/A   Overcast
6:51 AM 26.6 °F - 24.8 °F 93% 30.04 in 10.0 mi Calm Calm - N/A   Overcast
7:12 AM 26.6 °F - 23.0 °F 86% 30.04 in 10.0 mi Calm Calm - N/A   Overcast
7:30 AM 26.6 °F - 23.0 °F 86% 30.04 in 10.0 mi Calm Calm - N/A   Overcast
7:54 AM 26.6 °F - 24.8 °F 93% 30.04 in 10.0 mi Calm Calm - N/A   Overcast
8:12 AM 26.6 °F 22.6 °F 24.8 °F 93% 30.04 in 10.0 mi WNW 3.5 mph - N/A   Overcast
8:30 AM 28.4 °F - 26.6 °F 93% 30.04 in 10.0 mi Calm Calm - N/A   Overcast
8:54 AM 28.4 °F - 26.6 °F 93% 30.04 in 10.0 mi Calm Calm - N/A   Overcast
9:12 AM 30.2 °F - 26.6 °F 86% 30.04 in 10.0 mi Calm Calm - N/A   Overcast
9:30 AM 32.0 °F 27.5 °F 26.6 °F 80% 30.02 in 10.0 mi NNW 4.6 mph - N/A   Mostly Cloudy
9:54 AM 30.2 °F - 26.6 °F 86% 30.02 in 10.0 mi Calm Calm - N/A   Mostly Cloudy
10:12 AM 32.0 °F - 26.6 °F 80% 30.02 in 10.0 mi Calm Calm - N/A   Overcast
10:30 AM 32.0 °F - 26.6 °F 80% 30.02 in 10.0 mi Calm Calm - N/A   Mostly Cloudy
10:54 AM 33.8 °F - 28.4 °F 81% 30.01 in 10.0 mi Calm Calm - N/A   Scattered Clouds
11:12 AM 33.8 °F - 28.4 °F 81% 30.00 in 10.0 mi Calm Calm - N/A   Mostly Cloudy
11:30 AM 33.8 °F - 28.4 °F 81% 30.00 in 10.0 mi Calm Calm - N/A   Scattered Clouds
11:54 AM 37.4 °F - 30.2 °F 75% 29.98 in 10.0 mi Calm Calm - N/A   Mostly Cloudy
12:12 PM 35.6 °F - 28.4 °F 75% 29.98 in 10.0 mi Calm Calm - N/A   Overcast
12:30 PM 35.6 °F - 28.4 °F 75% 29.97 in 10.0 mi Calm Calm - N/A   Overcast
12:53 PM 35.6 °F 31.7 °F 28.4 °F 75% 29.97 in 10.0 mi SW 4.6 mph - N/A   Overcast
1:11 PM 35.6 °F 29.9 °F 30.2 °F 81% 29.97 in 10.0 mi South 6.9 mph - N/A Snow Light Snow
1:29 PM 35.6 °F 30.7 °F 30.2 °F 81% 29.97 in 10.0 mi South 5.8 mph - N/A   Overcast
1:53 PM 35.6 °F 32.8 °F 32.0 °F 87% 29.97 in 10.0 mi SE 3.5 mph - N/A   Overcast
2:12 PM 35.6 °F 32.8 °F 32.0 °F 87% 29.97 in 7.0 mi ENE 3.5 mph - N/A Snow Light Snow
2:30 PM 35.6 °F 30.7 °F 32.0 °F 87% 29.97 in 1.5 mi NNE 5.8 mph - N/A Snow Light Snow
2:54 PM 35.6 °F 32.8 °F 32.0 °F 87% 29.97 in 5.0 mi North 3.5 mph - N/A Rain Light Rain
3:11 PM 33.8 °F - 32.0 °F 93% 29.98 in 1.2 mi Calm Calm - N/A Rain Light Rain
3:29 PM 33.8 °F 29.6 °F 33.8 °F 100% 29.98 in 4.0 mi North 4.6 mph - N/A Rain Light Rain
3:53 PM 35.6 °F 32.8 °F 32.0 °F 87% 29.99 in 5.0 mi North 3.5 mph - N/A Snow Light Snow
4:12 PM 35.6 °F - 32.0 °F 87% 29.99 in 10.0 mi Calm Calm - N/A   Overcast
4:30 PM 35.6 °F 31.7 °F 32.0 °F 87% 29.99 in 10.0 mi NE 4.6 mph - N/A   Overcast
4:54 PM 35.6 °F - 30.2 °F 81% 29.98 in 10.0 mi Calm Calm - N/A   Overcast
5:12 PM 37.4 °F - 32.0 °F 81% 29.98 in 10.0 mi Calm Calm - N/A   Overcast
5:29 PM 37.4 °F - 32.0 °F 81% 29.98 in 10.0 mi Calm Calm - N/A   Scattered Clouds
5:53 PM 37.4 °F - 30.2 °F 75% 29.98 in 10.0 mi Calm Calm - N/A   Scattered Clouds
6:12 PM 41.0 °F - 30.2 °F 65% 29.98 in 10.0 mi Calm Calm - N/A   Scattered Clouds
6:30 PM 39.2 °F - 26.6 °F 61% 29.99 in 10.0 mi Calm Calm - N/A   Scattered Clouds
6:54 PM 37.4 °F 30.8 °F 26.6 °F 65% 29.99 in 10.0 mi NW 9.2 mph - N/A   Mostly Cloudy
7:12 PM 35.6 °F 28.0 °F 24.8 °F 65% 29.99 in 10.0 mi North 10.4 mph - N/A   Scattered Clouds
7:30 PM 35.6 °F 28.6 °F 24.8 °F 65% 30.00 in 10.0 mi NNW 9.2 mph - N/A   Scattered Clouds